| time (UTC) | temp F | wind direction | speed MPH | gust MPH | rain 1hr in | rain 24hr in | rain mn in | humidity % | barometer mb |
| 20260509054958 | 41 | 234 | 0.0 | 0.0 | 0.00 | 0.00 | 0.00 | 82 | 1012.2 |
| 20260509054457 | 41 | 234 | 0.0 | 0.0 | 0.00 | 0.00 | 0.00 | 81 | 1012.3 |
| 20260509053959 | 41 | 234 | 0.0 | 0.0 | 0.00 | 0.00 | 0.00 | 81 | 1012.3 |
| 20260509053458 | 42 | 234 | 0.0 | 0.0 | 0.00 | 0.00 | 0.00 | 81 | 1012.3 |
| 20260509052458 | 42 | 234 | 0.0 | 0.0 | 0.00 | 0.00 | 0.00 | 79 | 1012.2 |
| 20260509051457 | 42 | 234 | 0.0 | 0.0 | 0.00 | 0.00 | 0.00 | 80 | 1012.3 |
| 20260509050959 | 42 | 234 | 0.0 | 1.0 | 0.00 | 0.00 | 0.00 | 80 | 1012.3 |
| 20260509050001 | 42 | 234 | 1.0 | 2.0 | 0.00 | 0.00 | 0.00 | 79 | 1012.3 |
| 20260509045459 | 42 | 234 | 0.0 | 2.0 | 0.00 | 0.00 | 0.00 | 79 | 1012.3 |
| 20260509044959 | 42 | 234 | 0.0 | 2.0 | 0.00 | 0.00 | 0.00 | 79 | 1012.2 |
| 20260509044458 | 42 | 234 | 0.0 | 1.0 | 0.00 | 0.00 | 0.00 | 78 | 1012.1 |
| 20260509043459 | 42 | 234 | 0.0 | 1.0 | 0.00 | 0.00 | 0.00 | 78 | 1012.1 |
| 20260509042459 | 43 | 234 | 0.0 | 1.0 | 0.00 | 0.00 | 0.00 | 77 | 1012.0 |
| 20260509041959 | 43 | 234 | 0.0 | 1.0 | 0.00 | 0.00 | 0.00 | 77 | 1012.1 |
| 20260509041458 | 44 | 234 | 0.0 | 1.0 | 0.00 | 0.00 | 0.00 | 75 | 1012.0 |
| 20260509041000 | 44 | 234 | 0.0 | 1.0 | 0.00 | 0.00 | 0.00 | 73 | 1011.9 |
| 20260509040459 | 44 | 234 | 0.0 | 1.0 | 0.00 | 0.00 | 0.00 | 73 | 1011.9 |
| 20260509035000 | 44 | 234 | 0.0 | 1.0 | 0.00 | 0.00 | 0.00 | 73 | 1011.9 |
| 20260509034459 | 44 | 234 | 0.0 | 1.0 | 0.00 | 0.00 | 0.00 | 74 | 1011.9 |
| 20260509033500 | 44 | 234 | 1.0 | 4.0 | 0.00 | 0.00 | 0.00 | 73 | 1011.9 |
| 20260509033001 | 45 | 227 | 0.0 | 4.0 | 0.00 | 0.00 | 0.00 | 71 | 1011.8 |
| 20260509031500 | 46 | 227 | 0.0 | 1.0 | 0.00 | 0.00 | 0.00 | 70 | 1011.9 |
| 20260509030459 | 46 | 227 | 1.0 | 2.0 | 0.00 | 0.00 | 0.00 | 70 | 1011.7 |
| 20260509030005 | 46 | 227 | 1.0 | 2.0 | 0.00 | 0.00 | 0.00 | 69 | 1011.6 |
| 20260509025501 | 46 | 225 | 1.0 | 4.0 | 0.00 | 0.00 | 0.00 | 69 | 1011.6 |
| 20260509025002 | 46 | 225 | 1.0 | 4.0 | 0.00 | 0.00 | 0.00 | 68 | 1011.6 |
| 20260509024502 | 46 | 210 | 1.0 | 5.0 | 0.00 | 0.00 | 0.00 | 69 | 1011.5 |
| 20260509024001 | 46 | 210 | 1.0 | 5.0 | 0.00 | 0.00 | 0.00 | 69 | 1011.5 |
| 20260509023501 | 46 | 220 | 1.0 | 4.0 | 0.00 | 0.00 | 0.00 | 68 | 1011.4 |
| 20260509023002 | 47 | 220 | 1.0 | 5.0 | 0.00 | 0.00 | 0.00 | 69 | 1011.4 |
| 20260509022501 | 47 | 217 | 1.0 | 5.0 | 0.00 | 0.00 | 0.00 | 68 | 1011.3 |
| 20260509021500 | 47 | 236 | 0.0 | 2.0 | 0.00 | 0.00 | 0.00 | 67 | 1011.2 |
| 20260509021002 | 47 | 240 | 0.0 | 4.0 | 0.00 | 0.00 | 0.00 | 66 | 1011.2 |
| 20260509020501 | 47 | 240 | 0.0 | 4.0 | 0.00 | 0.00 | 0.00 | 63 | 1011.1 |
| 20260509015459 | 47 | 242 | 1.0 | 8.0 | 0.00 | 0.00 | 0.00 | 66 | 1011.0 |
| 20260509015000 | 47 | 232 | 1.0 | 8.0 | 0.00 | 0.00 | 0.00 | 66 | 1010.9 |
| 20260509014500 | 48 | 223 | 1.0 | 2.0 | 0.00 | 0.00 | 0.00 | 67 | 1010.9 |
| 20260509014001 | 48 | 223 | 1.0 | 2.0 | 0.00 | 0.00 | 0.00 | 65 | 1010.9 |
| 20260509013501 | 48 | 223 | 1.0 | 5.0 | 0.00 | 0.00 | 0.00 | 61 | 1010.7 |
| 20260509012001 | 49 | 198 | 0.0 | 0.0 | 0.00 | 0.00 | 0.00 | 60 | 1010.4 |
| 20260509011500 | 49 | 198 | 0.0 | 1.0 | 0.00 | 0.00 | 0.00 | 59 | 1010.3 |
| 20260509011001 | 49 | 198 | 1.0 | 2.0 | 0.00 | 0.00 | 0.00 | 61 | 1010.2 |
| 20260509010500 | 49 | 198 | 1.0 | 4.0 | 0.00 | 0.00 | 0.00 | 60 | 1010.1 |
| 20260509010004 | 49 | 198 | 1.0 | 4.0 | 0.00 | 0.00 | 0.00 | 60 | 1010.0 |
| 20260509005501 | 50 | 232 | 1.0 | 5.0 | 0.00 | 0.00 | 0.00 | 58 | 1009.9 |
| 20260509005002 | 50 | 241 | 1.0 | 5.0 | 0.00 | 0.00 | 0.00 | 57 | 1009.8 |
| 20260509004500 | 50 | 198 | 1.0 | 4.0 | 0.00 | 0.00 | 0.00 | 57 | 1009.7 |
| 20260509004002 | 50 | 198 | 1.0 | 4.0 | 0.00 | 0.00 | 0.00 | 56 | 1009.5 |
| 20260509003502 | 50 | 194 | 1.0 | 4.0 | 0.00 | 0.00 | 0.00 | 55 | 1009.3 |
| 20260509003002 | 51 | 222 | 1.0 | 4.0 | 0.00 | 0.00 | 0.00 | 56 | 1009.3 |
| 20260509002500 | 51 | 236 | 1.0 | 4.0 | 0.00 | 0.00 | 0.00 | 55 | 1009.2 |
| 20260509002002 | 51 | 199 | 2.0 | 7.0 | 0.00 | 0.00 | 0.00 | 56 | 1009.1 |
| 20260509001501 | 52 | 203 | 2.0 | 7.0 | 0.00 | 0.00 | 0.00 | 55 | 1009.0 |
| 20260509001002 | 52 | 217 | 1.0 | 6.0 | 0.00 | 0.00 | 0.00 | 54 | 1008.9 |
| 20260509000501 | 52 | 178 | 2.0 | 6.0 | 0.00 | 0.00 | 0.00 | 51 | 1008.7 |
| 20260508235459 | 53 | 211 | 2.0 | 9.0 | 0.00 | 0.00 | 0.00 | 50 | 1008.5 |
| 20260508234459 | 53 | 143 | 3.0 | 9.0 | 0.00 | 0.00 | 0.00 | 50 | 1008.5 |
| 20260508234009 | 54 | 240 | 2.0 | 9.0 | 0.00 | 0.00 | 0.00 | 52 | 1008.4 |
| 20260508233028 | 55 | 165 | 3.0 | 9.0 | 0.00 | 0.00 | 0.00 | 47 | 1008.3 |
| 20260508232010 | 56 | 234 | 4.0 | 11.0 | 0.00 | 0.00 | 0.00 | 44 | 1008.2 |
| 20260508231510 | 55 | 134 | 3.0 | 11.0 | 0.00 | 0.00 | 0.00 | 44 | 1008.1 |
| 20260508231008 | 56 | 208 | 3.0 | 8.0 | 0.00 | 0.00 | 0.00 | 46 | 1008.0 |
| 20260508230515 | 56 | 211 | 3.0 | 10.0 | 0.00 | 0.00 | 0.00 | 45 | 1008.1 |
| 20260508230004 | 55 | 209 | 3.0 | 10.0 | 0.00 | 0.00 | 0.00 | 45 | 1008.0 |
| 20260508225502 | 56 | 208 | 3.0 | 8.0 | 0.00 | 0.00 | 0.00 | 46 | 1008.0 |
| 20260508225030 | 56 | 240 | 4.0 | 8.0 | 0.00 | 0.00 | 0.00 | 45 | 1007.9 |
| 20260508224005 | 57 | 179 | 5.0 | 12.0 | 0.00 | 0.00 | 0.00 | 42 | 1007.9 |
| 20260508223502 | 57 | 179 | 4.0 | 12.0 | 0.00 | 0.00 | 0.00 | 42 | 1007.9 |
| 20260508223006 | 58 | 229 | 4.0 | 9.0 | 0.00 | 0.00 | 0.00 | 41 | 1007.7 |
| 20260508222503 | 58 | 178 | 4.0 | 9.0 | 0.00 | 0.00 | 0.00 | 43 | 1007.7 |
| 20260508222019 | 58 | 296 | 4.0 | 10.0 | 0.00 | 0.00 | 0.00 | 42 | 1007.7 |
| 20260508221000 | 58 | 194 | 3.0 | 7.0 | 0.00 | 0.00 | 0.00 | 42 | 1007.8 |
| 20260508220459 | 58 | 235 | 2.0 | 8.0 | 0.00 | 0.00 | 0.00 | 41 | 1007.7 |
| 20260508220007 | 59 | 317 | 2.0 | 8.0 | 0.00 | 0.00 | 0.00 | 42 | 1007.7 |
| 20260508215459 | 59 | 320 | 2.0 | 9.0 | 0.00 | 0.00 | 0.00 | 40 | 1007.6 |
| 20260508215000 | 59 | 319 | 3.0 | 9.0 | 0.00 | 0.00 | 0.00 | 40 | 1007.7 |
| 20260508214459 | 59 | 282 | 2.0 | 7.0 | 0.00 | 0.00 | 0.00 | 40 | 1007.6 |
| 20260508213001 | 60 | 341 | 3.0 | 10.0 | 0.00 | 0.00 | 0.00 | 38 | 1007.5 |
| 20260508212459 | 60 | 19 | 3.0 | 8.0 | 0.00 | 0.00 | 0.00 | 38 | 1007.6 |
| 20260508212000 | 59 | 184 | 3.0 | 8.0 | 0.00 | 0.00 | 0.00 | 39 | 1007.5 |
| 20260508211459 | 59 | 315 | 4.0 | 10.0 | 0.00 | 0.00 | 0.00 | 38 | 1007.5 |
| 20260508211000 | 60 | 193 | 3.0 | 10.0 | 0.00 | 0.00 | 0.00 | 37 | 1007.4 |
| 20260508210459 | 60 | 253 | 3.0 | 11.0 | 0.00 | 0.00 | 0.00 | 40 | 1007.3 |
| 20260508210003 | 60 | 263 | 4.0 | 11.0 | 0.00 | 0.00 | 0.00 | 35 | 1007.2 |
| 20260508205459 | 60 | 302 | 3.0 | 7.0 | 0.00 | 0.00 | 0.00 | 37 | 1007.0 |
| 20260508204500 | 60 | 54 | 2.0 | 7.0 | 0.00 | 0.00 | 0.00 | 36 | 1007.0 |
| 20260508204000 | 60 | 327 | 2.0 | 7.0 | 0.00 | 0.00 | 0.00 | 37 | 1007.0 |
| 20260508203500 | 60 | 271 | 2.0 | 7.0 | 0.00 | 0.00 | 0.00 | 36 | 1006.9 |
| 20260508202500 | 59 | 240 | 5.0 | 14.0 | 0.00 | 0.00 | 0.00 | 45 | 1006.8 |
| 20260508202001 | 59 | 187 | 5.0 | 14.0 | 0.00 | 0.00 | 0.00 | 42 | 1006.8 |
| 20260508201459 | 59 | 221 | 4.0 | 13.0 | 0.00 | 0.00 | 0.00 | 42 | 1006.7 |
| 20260508201000 | 59 | 200 | 4.0 | 10.0 | 0.00 | 0.00 | 0.00 | 42 | 1006.7 |
| 20260508200459 | 59 | 211 | 4.0 | 13.0 | 0.00 | 0.00 | 0.00 | 39 | 1006.8 |
| 20260508195459 | 60 | 216 | 3.0 | 13.0 | 0.00 | 0.00 | 0.00 | 33 | 1006.5 |
| 20260508195000 | 61 | 225 | 2.0 | 6.0 | 0.00 | 0.00 | 0.00 | 35 | 1006.4 |
| 20260508194459 | 62 | 235 | 2.0 | 7.0 | 0.00 | 0.00 | 0.00 | 33 | 1006.3 |
| 20260508194000 | 62 | 155 | 3.0 | 7.0 | 0.00 | 0.00 | 0.00 | 30 | 1006.2 |
| 20260508193459 | 63 | 246 | 5.0 | 13.0 | 0.00 | 0.00 | 0.00 | 31 | 1006.2 |
| 20260508193000 | 63 | 254 | 5.0 | 13.0 | 0.00 | 0.00 | 0.00 | 32 | 1006.2 |
| 20260508192459 | 62 | 225 | 4.0 | 13.0 | 0.00 | 0.00 | 0.00 | 29 | 1006.2 |
| 20260508192000 | 64 | 229 | 2.0 | 11.0 | 0.00 | 0.00 | 0.00 | 30 | 1006.2 |
| 20260508191500 | 63 | 197 | 2.0 | 7.0 | 0.00 | 0.00 | 0.00 | 31 | 1006.2 |
| 20260508191000 | 63 | 309 | 4.0 | 10.0 | 0.00 | 0.00 | 0.00 | 31 | 1006.1 |
| 20260508190459 | 62 | 255 | 4.0 | 10.0 | 0.00 | 0.00 | 0.00 | 32 | 1006.1 |
| 20260508185459 | 63 | 226 | 4.0 | 13.0 | 0.00 | 0.00 | 0.00 | 29 | 1006.2 |
| 20260508184959 | 63 | 205 | 3.0 | 13.0 | 0.00 | 0.00 | 0.00 | 30 | 1006.1 |
| 20260508184500 | 62 | 259 | 3.0 | 9.0 | 0.00 | 0.00 | 0.00 | 34 | 1006.1 |
| 20260508184001 | 62 | 250 | 3.0 | 9.0 | 0.00 | 0.00 | 0.00 | 33 | 1006.1 |
| 20260508183500 | 62 | 304 | 4.0 | 10.0 | 0.00 | 0.00 | 0.00 | 30 | 1006.0 |
| 20260508182959 | 62 | 294 | 4.0 | 10.0 | 0.00 | 0.00 | 0.00 | 29 | 1006.2 |
| 20260508182509 | 63 | 282 | 3.0 | 10.0 | 0.00 | 0.00 | 0.00 | 29 | 1006.2 |
| 20260508182007 | 63 | 281 | 3.0 | 11.0 | 0.00 | 0.00 | 0.00 | 30 | 1006.3 |
| 20260508181502 | 63 | 259 | 5.0 | 12.0 | 0.00 | 0.00 | 0.00 | 32 | 1006.2 |
| 20260508181011 | 62 | 11 | 5.0 | 12.0 | 0.00 | 0.00 | 0.00 | 31 | 1006.1 |
| 20260508180006 | 63 | 45 | 5.0 | 11.0 | 0.00 | 0.00 | 0.00 | 31 | 1006.1 |
| 20260508174012 | 64 | 254 | 4.0 | 12.0 | 0.00 | 0.00 | 0.00 | 30 | 1006.3 |
| 20260508173005 | 62 | 154 | 5.0 | 15.0 | 0.00 | 0.00 | 0.00 | 33 | 1006.5 |
| 20260508172510 | 63 | 146 | 4.0 | 11.0 | 0.00 | 0.00 | 0.00 | 28 | 1006.5 |
| 20260508172000 | 63 | 180 | 4.0 | 12.0 | 0.00 | 0.00 | 0.00 | 30 | 1006.6 |
| 20260508171508 | 63 | 204 | 4.0 | 12.0 | 0.00 | 0.00 | 0.00 | 31 | 1006.7 |
| 20260508171010 | 64 | 205 | 4.0 | 11.0 | 0.00 | 0.00 | 0.00 | 30 | 1006.6 |
| 20260508170502 | 63 | 208 | 3.0 | 11.0 | 0.00 | 0.00 | 0.00 | 29 | 1006.7 |
| 20260508170033 | 64 | 259 | 4.0 | 8.0 | 0.00 | 0.00 | 0.00 | 34 | 1006.7 |
| 20260508165502 | 63 | 360 | 6.0 | 18.0 | 0.00 | 0.00 | 0.00 | 28 | 1006.6 |
| 20260508165007 | 63 | 260 | 7.0 | 18.0 | 0.00 | 0.00 | 0.00 | 28 | 1006.9 |
| 20260508164459 | 64 | 165 | 5.0 | 11.0 | 0.00 | 0.00 | 0.00 | 30 | 1006.9 |
| 20260508164004 | 64 | 227 | 5.0 | 13.0 | 0.00 | 0.00 | 0.00 | 29 | 1006.9 |
| 20260508162508 | 63 | 221 | 5.0 | 16.0 | 0.00 | 0.00 | 0.00 | 32 | 1007.2 |
| 20260508161545 | 62 | 167 | 6.0 | 14.0 | 0.00 | 0.00 | 0.00 | 30 | 1007.1 |
| 20260508161006 | 63 | 238 | 5.0 | 11.0 | 0.00 | 0.00 | 0.00 | 30 | 1007.2 |
| 20260508160503 | 61 | 298 | 5.0 | 11.0 | 0.00 | 0.00 | 0.00 | 36 | 1007.3 |
| 20260508160006 | 60 | 195 | 4.0 | 10.0 | 0.00 | 0.00 | 0.00 | 36 | 1007.4 |
| 20260508155011 | 61 | 186 | 5.0 | 11.0 | 0.00 | 0.00 | 0.00 | 33 | 1007.5 |
| 20260508154504 | 61 | 188 | 5.0 | 11.0 | 0.00 | 0.00 | 0.00 | 30 | 1007.4 |
| 20260508154010 | 63 | 237 | 4.0 | 11.0 | 0.00 | 0.00 | 0.00 | 35 | 1007.5 |
| 20260508152513 | 62 | 183 | 3.0 | 13.0 | 0.00 | 0.00 | 0.00 | 34 | 1007.6 |
| 20260508151459 | 61 | 207 | 3.0 | 6.0 | 0.00 | 0.00 | 0.00 | 33 | 1007.7 |
| 20260508151000 | 60 | 307 | 2.0 | 6.0 | 0.00 | 0.00 | 0.00 | 35 | 1007.7 |
| 20260508150459 | 61 | 255 | 2.0 | 6.0 | 0.00 | 0.00 | 0.00 | 31 | 1007.8 |
| 20260508150001 | 62 | 311 | 3.0 | 7.0 | 0.00 | 0.00 | 0.00 | 33 | 1007.8 |
| 20260508145459 | 61 | 297 | 3.0 | 8.0 | 0.00 | 0.00 | 0.00 | 34 | 1007.9 |
| 20260508145000 | 60 | 259 | 3.0 | 8.0 | 0.00 | 0.00 | 0.00 | 35 | 1007.8 |
| 20260508144459 | 60 | 219 | 3.0 | 7.0 | 0.00 | 0.00 | 0.00 | 38 | 1007.9 |
| 20260508143959 | 59 | 184 | 5.0 | 9.0 | 0.00 | 0.00 | 0.00 | 38 | 1007.9 |
| 20260508143459 | 58 | 207 | 5.0 | 9.0 | 0.00 | 0.00 | 0.00 | 33 | 1007.9 |
| 20260508142500 | 61 | 203 | 2.0 | 6.0 | 0.00 | 0.00 | 0.00 | 31 | 1008.0 |
| 20260508141959 | 60 | 237 | 2.0 | 6.0 | 0.00 | 0.00 | 0.00 | 33 | 1008.0 |
| 20260508141459 | 60 | 158 | 2.0 | 8.0 | 0.00 | 0.00 | 0.00 | 32 | 1008.0 |
| 20260508141000 | 60 | 300 | 3.0 | 8.0 | 0.00 | 0.00 | 0.00 | 36 | 1008.0 |
| 20260508140459 | 59 | 219 | 3.0 | 8.0 | 0.00 | 0.00 | 0.00 | 35 | 1008.0 |
| 20260508140001 | 59 | 258 | 3.0 | 7.0 | 0.00 | 0.00 | 0.00 | 37 | 1008.0 |
| 20260508135459 | 60 | 304 | 2.0 | 7.0 | 0.00 | 0.00 | 0.00 | 37 | 1008.1 |
| 20260508135000 | 58 | 279 | 1.0 | 5.0 | 0.00 | 0.00 | 0.00 | 39 | 1008.1 |
| 20260508134459 | 58 | 302 | 2.0 | 5.0 | 0.00 | 0.00 | 0.00 | 37 | 1008.2 |
| 20260508134000 | 58 | 281 | 2.0 | 5.0 | 0.00 | 0.00 | 0.00 | 38 | 1008.3 |
| 20260508133459 | 58 | 271 | 2.0 | 5.0 | 0.00 | 0.00 | 0.00 | 38 | 1008.2 |
| 20260508133000 | 57 | 114 | 2.0 | 5.0 | 0.00 | 0.00 | 0.00 | 40 | 1008.2 |
| 20260508132458 | 57 | 309 | 2.0 | 6.0 | 0.00 | 0.00 | 0.00 | 40 | 1008.3 |
| 20260508131459 | 56 | 255 | 2.0 | 7.0 | 0.00 | 0.00 | 0.00 | 40 | 1008.3 |
| 20260508130959 | 56 | 324 | 1.0 | 4.0 | 0.00 | 0.00 | 0.00 | 43 | 1008.3 |
| 20260508130459 | 55 | 231 | 1.0 | 4.0 | 0.00 | 0.00 | 0.00 | 44 | 1008.3 |
| 20260508130004 | 54 | 336 | 1.0 | 5.0 | 0.00 | 0.00 | 0.00 | 43 | 1008.3 |
| 20260508125459 | 54 | 315 | 2.0 | 5.0 | 0.00 | 0.02 | 0.00 | 43 | 1008.3 |
| 20260508125000 | 55 | 293 | 2.0 | 5.0 | 0.00 | 0.02 | 0.00 | 40 | 1008.3 |
| 20260508124459 | 56 | 342 | 2.0 | 7.0 | 0.00 | 0.02 | 0.00 | 41 | 1008.2 |
| 20260508124000 | 57 | 256 | 3.0 | 7.0 | 0.00 | 0.02 | 0.00 | 43 | 1008.3 |
| 20260508123459 | 56 | 196 | 2.0 | 7.0 | 0.00 | 0.02 | 0.00 | 43 | 1008.4 |
| 20260508122500 | 54 | 298 | 1.0 | 5.0 | 0.00 | 0.02 | 0.00 | 46 | 1008.4 |
| 20260508121959 | 54 | 327 | 1.0 | 5.0 | 0.00 | 0.02 | 0.00 | 45 | 1008.4 |
| 20260508121500 | 53 | 324 | 1.0 | 4.0 | 0.00 | 0.02 | 0.00 | 45 | 1008.4 |
| 20260508121000 | 53 | 278 | 2.0 | 7.0 | 0.00 | 0.02 | 0.00 | 50 | 1008.4 |
| 20260508120459 | 52 | 271 | 1.0 | 7.0 | 0.00 | 0.02 | 0.00 | 51 | 1008.4 |
| 20260508120000 | 51 | 267 | 1.0 | 5.0 | 0.00 | 0.05 | 0.00 | 55 | 1008.4 |
| 20260508115459 | 50 | 220 | 1.0 | 5.0 | 0.00 | 0.05 | 0.00 | 52 | 1008.5 |
| 20260508114959 | 50 | 215 | 1.0 | 6.0 | 0.00 | 0.05 | 0.00 | 56 | 1008.5 |
| 20260508114459 | 49 | 215 | 2.0 | 6.0 | 0.00 | 0.05 | 0.00 | 55 | 1008.5 |
| 20260508113959 | 49 | 232 | 2.0 | 9.0 | 0.00 | 0.05 | 0.00 | 55 | 1008.5 |
| 20260508112959 | 49 | 278 | 2.0 | 6.0 | 0.00 | 0.05 | 0.00 | 57 | 1008.4 |
| 20260508112500 | 48 | 240 | 2.0 | 6.0 | 0.00 | 0.05 | 0.00 | 57 | 1008.4 |
| 20260508112000 | 47 | 253 | 2.0 | 5.0 | 0.00 | 0.05 | 0.00 | 63 | 1008.3 |
| 20260508111459 | 47 | 214 | 1.0 | 4.0 | 0.00 | 0.05 | 0.00 | 62 | 1008.4 |
| 20260508111000 | 47 | 215 | 1.0 | 6.0 | 0.00 | 0.05 | 0.00 | 64 | 1008.3 |
| 20260508110459 | 47 | 215 | 1.0 | 6.0 | 0.00 | 0.05 | 0.00 | 63 | 1008.2 |
| 20260508110000 | 47 | 223 | 2.0 | 6.0 | 0.00 | 0.10 | 0.00 | 62 | 1008.2 |
| 20260508105458 | 47 | 223 | 2.0 | 6.0 | 0.00 | 0.10 | 0.00 | 62 | 1008.2 |
| 20260508105000 | 46 | 227 | 1.0 | 4.0 | 0.00 | 0.10 | 0.00 | 63 | 1008.1 |
| 20260508104500 | 45 | 236 | 1.0 | 4.0 | 0.00 | 0.10 | 0.00 | 67 | 1008.0 |
| 20260508104000 | 44 | 236 | 1.0 | 4.0 | 0.00 | 0.10 | 0.00 | 71 | 1008.0 |
| 20260508103459 | 44 | 236 | 1.0 | 4.0 | 0.00 | 0.10 | 0.00 | 70 | 1008.0 |
| 20260508102459 | 43 | 240 | 1.0 | 5.0 | 0.00 | 0.10 | 0.00 | 73 | 1007.9 |
| 20260508101959 | 43 | 241 | 1.0 | 5.0 | 0.00 | 0.10 | 0.00 | 75 | 1007.9 |
| 20260508093959 | 40 | 238 | 1.0 | 4.0 | 0.00 | 0.17 | 0.00 | 75 | 1007.5 |
| 20260508093459 | 40 | 238 | 1.0 | 4.0 | 0.00 | 0.17 | 0.00 | 77 | 1007.5 |
| 20260508092459 | 39 | 240 | 1.0 | 4.0 | 0.00 | 0.17 | 0.00 | 79 | 1007.4 |
| 20260508092001 | 39 | 240 | 0.0 | 4.0 | 0.00 | 0.17 | 0.00 | 81 | 1007.4 |
| 20260508091500 | 39 | 252 | 1.0 | 2.0 | 0.00 | 0.17 | 0.00 | 82 | 1007.4 |
| 20260508091001 | 39 | 252 | 1.0 | 2.0 | 0.00 | 0.17 | 0.00 | 83 | 1007.3 |
| 20260508090459 | 38 | 254 | 1.0 | 3.0 | 0.00 | 0.17 | 0.00 | 82 | 1007.3 |
| 20260508090004 | 39 | 254 | 1.0 | 4.0 | 0.00 | 0.34 | 0.00 | 82 | 1007.3 |
| 20260508085458 | 39 | 261 | 0.0 | 2.0 | 0.00 | 0.34 | 0.00 | 82 | 1007.2 |
| 20260508084958 | 39 | 261 | 0.0 | 1.0 | 0.00 | 0.34 | 0.00 | 82 | 1007.1 |
| 20260508084459 | 39 | 261 | 0.0 | 4.0 | 0.00 | 0.34 | 0.00 | 81 | 1007.0 |
| 20260508083959 | 39 | 261 | 0.0 | 4.0 | 0.00 | 0.34 | 0.00 | 81 | 1006.9 |
| 20260508081959 | 39 | 267 | 0.0 | 2.0 | 0.00 | 0.34 | 0.00 | 78 | 1006.7 |
| 20260508081457 | 40 | 267 | 0.0 | 2.0 | 0.00 | 0.34 | 0.00 | 78 | 1006.6 |
| 20260508080959 | 40 | 267 | 0.0 | 1.0 | 0.00 | 0.34 | 0.00 | 77 | 1006.5 |
| 20260508080458 | 40 | 267 | 0.0 | 1.0 | 0.00 | 0.34 | 0.00 | 77 | 1006.4 |
| 20260508075959 | 40 | 267 | 0.0 | 1.0 | 0.00 | 0.34 | 0.00 | 77 | 1006.3 |
| 20260508075458 | 40 | 267 | 1.0 | 2.0 | 0.00 | 0.34 | 0.00 | 77 | 1006.3 |
| 20260508075028 | 40 | 267 | 1.0 | 2.0 | 0.00 | 0.34 | 0.00 | 76 | 1006.3 |
| 20260508074523 | 41 | 267 | 1.0 | 2.0 | 0.00 | 0.34 | 0.00 | 76 | 1006.2 |
| 20260508073959 | 41 | 267 | 0.0 | 1.0 | 0.00 | 0.34 | 0.00 | 75 | 1006.0 |
| 20260508073458 | 41 | 267 | 0.0 | 0.0 | 0.00 | 0.34 | 0.00 | 73 | 1005.9 |
| 20260508072958 | 41 | 267 | 0.0 | 0.0 | 0.00 | 0.34 | 0.00 | 71 | 1005.9 |
| 20260508071959 | 42 | 267 | 0.0 | 0.0 | 0.00 | 0.34 | 0.00 | 70 | 1005.8 |
| 20260508071458 | 42 | 267 | 0.0 | 0.0 | 0.00 | 0.34 | 0.00 | 69 | 1005.8 |
| 20260508070959 | 42 | 267 | 0.0 | 0.0 | 0.00 | 0.34 | 0.00 | 69 | 1005.9 |
| 20260508070458 | 42 | 267 | 0.0 | 0.0 | 0.00 | 0.34 | 0.00 | 68 | 1006.0 |
| 20260508065458 | 43 | 267 | 0.0 | 0.0 | 0.00 | 0.34 | 0.00 | 67 | 1006.0 |
| 20260508064958 | 43 | 267 | 0.0 | 0.0 | 0.00 | 0.34 | 0.00 | 66 | 1006.0 |
| 20260508064459 | 44 | 267 | 0.0 | 0.0 | 0.00 | 0.34 | 0.00 | 64 | 1005.9 |
| 20260508063959 | 45 | 267 | 0.0 | 0.0 | 0.00 | 0.34 | 0.00 | 63 | 1005.8 |
| 20260508063458 | 45 | 267 | 0.0 | 0.0 | 0.00 | 0.34 | 0.00 | 62 | 1005.8 |
| 20260508062959 | 45 | 267 | 0.0 | 1.0 | 0.00 | 0.34 | 0.00 | 64 | 1005.7 |
| 20260508062459 | 46 | 267 | 0.0 | 2.0 | 0.00 | 0.34 | 0.00 | 61 | 1005.8 |
| 20260508061959 | 47 | 267 | 0.0 | 2.0 | 0.00 | 0.34 | 0.00 | 56 | 1005.7 |
| 20260508061459 | 48 | 267 | 1.0 | 2.0 | 0.00 | 0.34 | 0.00 | 51 | 1005.6 |
| 20260508060959 | 48 | 267 | 1.0 | 4.0 | 0.00 | 0.34 | 0.00 | 48 | 1005.6 |
| 20260508055959 | 48 | 267 | 1.0 | 4.0 | 0.00 | 0.34 | 0.00 | 51 | 1005.7 |
| 20260508055458 | 48 | 267 | 1.0 | 4.0 | 0.00 | 0.34 | 0.00 | 50 | 1005.6 |